Hourly Data Report for June 30, 2020

OTTAWA INTL A
ONTARIO
Current Station Operator: NAVCAN

45°19'00.000" N
75°40'00.000" W
114.90 m
6106001
71628
YOW

Download Data

Hourly Data (June 2020)
Hourly Data Report for June 30, 2020
TIME
LST
Temp Definition
°C
Dew Point Definition
°C
Rel Hum Definition
%
Precip. Amount Definition
mm

Wind Dir Definition
10's deg

Wind Spd Definition
km/h
Visibility Definition
km
Stn Press Definition
kPa
Hmdx Definition


Wind Chill Definition


Weather Definition


00:00 18.4 15.8 85   3 13 24.1 100.21     LegendNANA
01:00 18.9 15.8 82   1 13 24.1 100.23     Mainly Clear
02:00 19.1 15.8 81   35 12 24.1 100.24     LegendNANA
03:00 18.8 15.7 82   1 14 24.1 100.23     LegendNANA
04:00 18.7 15.6 82   2 17 24.1 100.23     Mostly Cloudy
05:00 18.8 15.7 82   4 18 24.1 100.24     LegendNANA
06:00 20.2 16.0 76   4 14 24.1 100.26 25   LegendNANA
07:00 20.1 16.3 79   1 16 24.1 100.30 25   Mostly Cloudy
08:00 21.5 16.9 75   4 13 24.1 100.30 27   LegendNANA
09:00 21.6 16.9 74   4 14 24.1 100.30 27   LegendNANA
10:00 21.8 16.4 71   4 18 24.1 100.28 27   Mostly Cloudy
11:00 22.5 17.1 71   9 14 24.1 100.32 28   LegendNANA
12:00 23.9 16.4 62   5 22 24.1 100.30 29   LegendNANA
13:00 24.1 16.7 63   4 16 24.1 100.27 29   Mostly Cloudy
14:00 25.4 16.8 58   4 23 24.1 100.21 31   LegendNANA
15:00 26.9 17.6 56   6 20 24.1 100.15 33   LegendNANA
16:00 25.8 17.3 59   3 14 24.1 100.11 31   Mostly Cloudy
17:00 24.9 17.2 62   5 18 24.1 100.11 30   LegendNANA
18:00 24.3 17.4 65   8 10 24.1 100.11 30   LegendNANA
19:00 23.2 17.4 70   8 13 24.1 100.14 29   Mostly Cloudy
20:00 21.5 16.8 74   9 14 24.1 100.15 27   LegendNANA
21:00 19.6 16.7 84   8 4 24.1 100.17     LegendNANA
22:00 20.0 16.7 81   5 7 24.1 100.17 25   Mainly Clear
23:00 19.0 16.6 86   5 10 24.1 100.15     LegendNANA

Notes on Data Quality.

Legend

  • E = Estimated
  • M = Missing
  • NA = Not Available*
  • [empty] = Indicates an unobserved value
Date modified: